| time (UTC) | temp F | wind direction | speed MPH | gust MPH | rain 1hr in | rain 24hr in | rain mn in | humidity % | barometer mb |
| 20260904044016 | 61 | 245 | 0.0 | 1.0 | 0.00 | 0.05 | 0.05 | 74 | 1010.0 |
| 20260904043517 | 61 | 249 | 0.0 | 2.0 | 0.00 | 0.05 | 0.05 | 74 | 1010.0 |
| 20260904043017 | 61 | 233 | 0.0 | 1.0 | 0.00 | 0.05 | 0.05 | 73 | 1010.0 |
| 20260904042517 | 61 | 220 | 0.0 | 2.0 | 0.00 | 0.05 | 0.05 | 73 | 1010.0 |
| 20260904042017 | 61 | 213 | 0.0 | 2.0 | 0.00 | 0.05 | 0.05 | 73 | 1010.0 |
| 20260904041517 | 61 | 246 | 0.0 | 1.0 | 0.00 | 0.05 | 0.05 | 73 | 1010.0 |
| 20260904041017 | 61 | 210 | 0.0 | 1.0 | 0.00 | 0.05 | 0.05 | 73 | 1010.0 |
| 20260904040520 | 61 | 201 | 0.0 | 2.0 | 0.00 | 0.05 | 0.05 | 73 | 1009.9 |
| 20260904040020 | 61 | 207 | 1.0 | 2.0 | 0.00 | 0.05 | 0.05 | 73 | 1009.9 |
| 20260904035517 | 61 | 220 | 0.0 | 2.0 | 0.00 | 0.05 | 0.05 | 72 | 1009.9 |
| 20260904035017 | 61 | 240 | 0.0 | 2.0 | 0.00 | 0.05 | 0.05 | 72 | 1009.8 |
| 20260904034518 | 61 | 225 | 1.0 | 3.0 | 0.00 | 0.05 | 0.05 | 72 | 1009.7 |
| 20260904034018 | 62 | 281 | 0.0 | 2.0 | 0.00 | 0.05 | 0.05 | 70 | 1009.7 |
| 20260904033518 | 62 | 208 | 1.0 | 2.0 | 0.00 | 0.05 | 0.05 | 70 | 1009.6 |
| 20260904033018 | 62 | 184 | 0.0 | 2.0 | 0.00 | 0.05 | 0.05 | 70 | 1009.5 |
| 20260904032538 | 62 | 184 | 0.0 | 2.0 | 0.00 | 0.05 | 0.05 | 69 | 1009.5 |
| 20260904032018 | 62 | 185 | 2.0 | 3.0 | 0.00 | 0.05 | 0.05 | 69 | 1009.5 |
| 20260904031518 | 62 | 185 | 2.0 | 4.0 | 0.00 | 0.05 | 0.05 | 69 | 1009.5 |
| 20260904031018 | 62 | 153 | 3.0 | 7.0 | 0.00 | 0.05 | 0.05 | 69 | 1009.5 |
| 20260904030518 | 63 | 169 | 3.0 | 6.0 | 0.00 | 0.05 | 0.05 | 68 | 1009.4 |
| 20260904030016 | 63 | 182 | 2.0 | 5.0 | 0.00 | 0.05 | 0.05 | 67 | 1009.4 |
| 20260904025515 | 63 | 154 | 2.0 | 4.0 | 0.00 | 0.05 | 0.05 | 65 | 1009.3 |
| 20260904025016 | 63 | 139 | 1.0 | 3.0 | 0.00 | 0.05 | 0.05 | 65 | 1009.3 |
| 20260904024522 | 64 | 148 | 2.0 | 4.0 | 0.00 | 0.05 | 0.05 | 65 | 1009.3 |
| 20260904024018 | 64 | 143 | 2.0 | 3.0 | 0.00 | 0.05 | 0.05 | 64 | 1009.2 |
| 20260904023518 | 64 | 191 | 1.0 | 2.0 | 0.00 | 0.05 | 0.05 | 63 | 1009.2 |
| 20260904023023 | 64 | 325 | 1.0 | 2.0 | 0.00 | 0.05 | 0.05 | 62 | 1009.1 |
| 20260904022519 | 65 | 200 | 1.0 | 4.0 | 0.00 | 0.05 | 0.05 | 61 | 1009.1 |
| 20260904022018 | 65 | 229 | 2.0 | 4.0 | 0.00 | 0.05 | 0.05 | 61 | 1009.1 |
| 20260904021518 | 65 | 261 | 2.0 | 6.0 | 0.00 | 0.05 | 0.05 | 60 | 1009.1 |
| 20260904021022 | 65 | 283 | 2.0 | 5.0 | 0.00 | 0.05 | 0.05 | 59 | 1009.0 |
| 20260904020537 | 66 | 260 | 1.0 | 4.0 | 0.00 | 0.05 | 0.05 | 58 | 1009.0 |
| 20260904020045 | 66 | 283 | 1.0 | 4.0 | 0.00 | 0.05 | 0.05 | 58 | 1009.0 |
| 20260904015517 | 66 | 277 | 1.0 | 4.0 | 0.00 | 0.05 | 0.05 | 57 | 1009.0 |
| 20260904015059 | 66 | 261 | 2.0 | 5.0 | 0.00 | 0.05 | 0.05 | 59 | 1009.0 |
| 20260904014538 | 66 | 275 | 0.0 | 2.0 | 0.00 | 0.05 | 0.05 | 62 | 1009.0 |
| 20260904014036 | 65 | 237 | 0.0 | 2.0 | 0.00 | 0.05 | 0.05 | 60 | 1009.0 |
| 20260904013516 | 65 | 86 | 1.0 | 3.0 | 0.00 | 0.05 | 0.05 | 59 | 1009.0 |
| 20260904013018 | 65 | 65 | 2.0 | 4.0 | 0.00 | 0.05 | 0.05 | 61 | 1009.0 |
| 20260904012516 | 65 | 64 | 3.0 | 5.0 | 0.00 | 0.05 | 0.05 | 61 | 1009.0 |
| 20260904012019 | 65 | 75 | 2.0 | 5.0 | 0.00 | 0.05 | 0.05 | 61 | 1009.0 |
| 20260904011522 | 65 | 70 | 2.0 | 5.0 | 0.00 | 0.05 | 0.05 | 62 | 1009.0 |
| 20260904011018 | 65 | 71 | 2.0 | 5.0 | 0.00 | 0.05 | 0.05 | 62 | 1009.0 |
| 20260904010543 | 65 | 103 | 1.0 | 3.0 | 0.00 | 0.05 | 0.05 | 62 | 1009.0 |
| 20260904010017 | 66 | 107 | 2.0 | 5.0 | 0.00 | 0.05 | 0.05 | 59 | 1008.9 |
| 20260904005518 | 66 | 115 | 1.0 | 2.0 | 0.00 | 0.05 | 0.05 | 56 | 1008.9 |
| 20260904005019 | 66 | 65 | 2.0 | 3.0 | 0.00 | 0.05 | 0.05 | 56 | 1008.9 |
| 20260904004524 | 66 | 60 | 3.0 | 6.0 | 0.00 | 0.05 | 0.05 | 56 | 1008.9 |
| 20260904004018 | 65 | 64 | 3.0 | 5.0 | 0.00 | 0.05 | 0.05 | 56 | 1008.9 |
| 20260904003520 | 65 | 67 | 4.0 | 7.0 | 0.00 | 0.05 | 0.05 | 57 | 1008.9 |
| 20260904003018 | 65 | 61 | 4.0 | 6.0 | 0.00 | 0.05 | 0.05 | 60 | 1008.9 |
| 20260904002518 | 65 | 82 | 3.0 | 6.0 | 0.00 | 0.05 | 0.05 | 60 | 1008.9 |
| 20260904002022 | 65 | 68 | 3.0 | 6.0 | 0.00 | 0.05 | 0.05 | 60 | 1008.9 |
| 20260904001518 | 65 | 76 | 2.0 | 6.0 | 0.00 | 0.05 | 0.05 | 61 | 1008.9 |
| 20260904001046 | 65 | 87 | 2.0 | 4.0 | 0.00 | 0.05 | 0.05 | 61 | 1008.9 |
| 20260904000518 | 65 | 67 | 4.0 | 7.0 | 0.00 | 0.05 | 0.05 | 61 | 1008.9 |
| 20260904000031 | 65 | 71 | 3.0 | 7.0 | 0.00 | 0.05 | 0.05 | 61 | 1008.9 |
| 20260903235539 | 65 | 73 | 3.0 | 5.0 | 0.00 | 0.05 | 0.05 | 61 | 1008.9 |
| 20260903235039 | 65 | 104 | 2.0 | 3.0 | 0.00 | 0.05 | 0.05 | 61 | 1008.9 |
| 20260903234518 | 65 | 62 | 3.0 | 5.0 | 0.00 | 0.05 | 0.05 | 61 | 1008.9 |
| 20260903234036 | 65 | 69 | 3.0 | 6.0 | 0.00 | 0.05 | 0.05 | 61 | 1009.0 |
| 20260903233519 | 65 | 76 | 2.0 | 4.0 | 0.00 | 0.05 | 0.05 | 62 | 1008.9 |
| 20260903233022 | 64 | 73 | 2.0 | 4.0 | 0.00 | 0.05 | 0.05 | 62 | 1008.9 |
| 20260903232533 | 65 | 57 | 3.0 | 5.0 | 0.00 | 0.05 | 0.05 | 62 | 1008.9 |
| 20260903232019 | 65 | 68 | 2.0 | 5.0 | 0.00 | 0.05 | 0.05 | 62 | 1008.9 |
| 20260903231519 | 65 | 112 | 1.0 | 3.0 | 0.00 | 0.06 | 0.05 | 63 | 1008.9 |
| 20260903231036 | 65 | 142 | 1.0 | 3.0 | 0.01 | 0.07 | 0.05 | 64 | 1008.9 |
| 20260903230517 | 65 | 76 | 1.0 | 3.0 | 0.01 | 0.08 | 0.05 | 64 | 1009.0 |
| 20260903230019 | 66 | 75 | 1.0 | 3.0 | 0.01 | 0.09 | 0.05 | 64 | 1009.1 |
| 20260903225516 | 66 | 74 | 0.0 | 2.0 | 0.01 | 0.10 | 0.05 | 64 | 1009.1 |
| 20260903225042 | 66 | 317 | 0.0 | 2.0 | 0.01 | 0.11 | 0.04 | 63 | 1009.1 |
| 20260903224536 | 65 | 344 | 0.0 | 2.0 | 0.01 | 0.12 | 0.04 | 60 | 1009.1 |
| 20260903224017 | 65 | 45 | 1.0 | 3.0 | 0.01 | 0.13 | 0.04 | 60 | 1009.1 |
| 20260903223516 | 65 | 153 | 1.0 | 3.0 | 0.01 | 0.13 | 0.04 | 60 | 1009.2 |
| 20260903223036 | 65 | 14 | 0.0 | 2.0 | 0.01 | 0.14 | 0.04 | 62 | 1009.2 |
| 20260903222517 | 65 | 181 | 1.0 | 3.0 | 0.01 | 0.14 | 0.04 | 62 | 1009.2 |
| 20260903222037 | 65 | 258 | 0.0 | 2.0 | 0.01 | 0.14 | 0.04 | 64 | 1009.1 |
| 20260903221516 | 65 | 261 | 1.0 | 2.0 | 0.01 | 0.15 | 0.04 | 63 | 1009.2 |
| 20260903221037 | 65 | 173 | 1.0 | 3.0 | 0.01 | 0.15 | 0.04 | 63 | 1009.1 |
| 20260903220517 | 65 | 185 | 1.0 | 4.0 | 0.00 | 0.15 | 0.04 | 63 | 1009.2 |
| 20260903220037 | 65 | 291 | 1.0 | 4.0 | 0.00 | 0.15 | 0.03 | 62 | 1009.2 |
| 20260903215517 | 65 | 256 | 3.0 | 5.0 | 0.00 | 0.16 | 0.03 | 60 | 1009.2 |
| 20260903215017 | 65 | 223 | 3.0 | 5.0 | 0.00 | 0.16 | 0.03 | 60 | 1009.2 |
| 20260903214517 | 66 | 157 | 2.0 | 5.0 | 0.00 | 0.17 | 0.03 | 59 | 1009.2 |
| 20260903214021 | 66 | 248 | 2.0 | 5.0 | 0.00 | 0.18 | 0.03 | 59 | 1009.2 |
| 20260903213518 | 66 | 190 | 2.0 | 4.0 | 0.00 | 0.18 | 0.03 | 58 | 1009.2 |
| 20260903213018 | 66 | 260 | 3.0 | 7.0 | 0.00 | 0.18 | 0.03 | 57 | 1009.2 |
| 20260903212518 | 66 | 264 | 2.0 | 6.0 | 0.00 | 0.18 | 0.03 | 57 | 1009.2 |
| 20260903212017 | 66 | 208 | 2.0 | 7.0 | 0.00 | 0.19 | 0.03 | 57 | 1009.2 |
| 20260903211518 | 66 | 258 | 2.0 | 8.0 | 0.00 | 0.19 | 0.03 | 58 | 1009.2 |
| 20260903211038 | 65 | 229 | 2.0 | 5.0 | 0.00 | 0.20 | 0.03 | 58 | 1009.2 |
| 20260903210521 | 66 | 224 | 3.0 | 6.0 | 0.00 | 0.20 | 0.03 | 58 | 1009.1 |
| 20260903210018 | 65 | 268 | 2.0 | 5.0 | 0.00 | 0.20 | 0.03 | 58 | 1009.1 |
| 20260903205538 | 65 | 260 | 1.0 | 4.0 | 0.00 | 0.20 | 0.03 | 59 | 1009.1 |
| 20260903205018 | 65 | 250 | 2.0 | 4.0 | 0.00 | 0.20 | 0.03 | 59 | 1009.0 |
| 20260903204538 | 64 | 243 | 1.0 | 4.0 | 0.00 | 0.20 | 0.03 | 61 | 1009.0 |
| 20260903204019 | 64 | 268 | 1.0 | 3.0 | 0.00 | 0.20 | 0.03 | 60 | 1009.0 |
| 20260903203518 | 64 | 168 | 4.0 | 6.0 | 0.00 | 0.20 | 0.03 | 60 | 1008.9 |
| 20260903203019 | 64 | 212 | 3.0 | 6.0 | 0.00 | 0.20 | 0.03 | 60 | 1008.9 |
| 20260903202518 | 64 | 210 | 4.0 | 7.0 | 0.00 | 0.20 | 0.03 | 60 | 1008.9 |
| 20260903202019 | 65 | 231 | 4.0 | 8.0 | 0.00 | 0.20 | 0.03 | 59 | 1008.9 |
| 20260903201519 | 65 | 192 | 4.0 | 10.0 | 0.00 | 0.20 | 0.03 | 58 | 1009.0 |
| 20260903201016 | 65 | 212 | 4.0 | 10.0 | 0.00 | 0.20 | 0.03 | 58 | 1009.0 |
| 20260903200516 | 65 | 180 | 5.0 | 11.0 | 0.00 | 0.20 | 0.03 | 58 | 1009.1 |
| 20260903200036 | 64 | 194 | 4.0 | 9.0 | 0.00 | 0.21 | 0.03 | 60 | 1009.1 |
| 20260903195516 | 64 | 212 | 5.0 | 9.0 | 0.00 | 0.22 | 0.03 | 60 | 1009.1 |
| 20260903195019 | 64 | 197 | 5.0 | 9.0 | 0.00 | 0.23 | 0.03 | 60 | 1009.1 |
| 20260903194516 | 65 | 203 | 4.0 | 9.0 | 0.00 | 0.23 | 0.03 | 60 | 1009.1 |
| 20260903194016 | 65 | 202 | 3.0 | 7.0 | 0.00 | 0.23 | 0.03 | 59 | 1009.1 |
| 20260903193516 | 64 | 192 | 2.0 | 5.0 | 0.00 | 0.23 | 0.03 | 60 | 1009.1 |
| 20260903193039 | 64 | 201 | 4.0 | 9.0 | 0.00 | 0.23 | 0.03 | 60 | 1009.0 |
| 20260903192516 | 64 | 196 | 4.0 | 8.0 | 0.00 | 0.23 | 0.03 | 60 | 1008.9 |
| 20260903192016 | 63 | 225 | 4.0 | 8.0 | 0.00 | 0.23 | 0.03 | 61 | 1009.0 |
| 20260903191517 | 64 | 227 | 4.0 | 8.0 | 0.00 | 0.23 | 0.03 | 61 | 1008.9 |
| 20260903191017 | 63 | 234 | 3.0 | 6.0 | 0.00 | 0.23 | 0.03 | 61 | 1009.0 |
| 20260903190519 | 63 | 229 | 4.0 | 9.0 | 0.00 | 0.23 | 0.03 | 61 | 1008.9 |
| 20260903190017 | 63 | 215 | 3.0 | 7.0 | 0.00 | 0.23 | 0.03 | 62 | 1008.9 |
| 20260903185517 | 62 | 235 | 5.0 | 8.0 | 0.00 | 0.23 | 0.03 | 62 | 1008.9 |
| 20260903185017 | 62 | 206 | 4.0 | 9.0 | 0.00 | 0.23 | 0.03 | 62 | 1008.9 |
| 20260903184517 | 62 | 223 | 4.0 | 8.0 | 0.00 | 0.23 | 0.03 | 63 | 1009.0 |
| 20260903184017 | 62 | 199 | 3.0 | 9.0 | 0.00 | 0.23 | 0.03 | 64 | 1009.0 |
| 20260903183517 | 62 | 207 | 4.0 | 9.0 | 0.00 | 0.23 | 0.03 | 66 | 1009.0 |
| 20260903183037 | 62 | 173 | 4.0 | 8.0 | 0.00 | 0.23 | 0.03 | 67 | 1008.9 |
| 20260903182517 | 63 | 164 | 5.0 | 9.0 | 0.00 | 0.23 | 0.03 | 66 | 1008.8 |
| 20260903182017 | 63 | 157 | 5.0 | 11.0 | 0.00 | 0.23 | 0.03 | 66 | 1008.8 |
| 20260903181517 | 63 | 167 | 5.0 | 9.0 | 0.00 | 0.23 | 0.03 | 66 | 1008.8 |
| 20260903181023 | 63 | 172 | 6.0 | 11.0 | 0.00 | 0.23 | 0.03 | 64 | 1008.8 |
| 20260903180538 | 63 | 164 | 6.0 | 11.0 | 0.00 | 0.23 | 0.03 | 65 | 1008.8 |
| 20260903180021 | 62 | 161 | 6.0 | 12.0 | 0.00 | 0.23 | 0.03 | 67 | 1008.8 |
| 20260903175518 | 62 | 152 | 5.0 | 11.0 | 0.00 | 0.23 | 0.03 | 68 | 1008.8 |
| 20260903175018 | 62 | 147 | 5.0 | 9.0 | 0.00 | 0.23 | 0.03 | 69 | 1008.8 |
| 20260903174538 | 62 | 158 | 5.0 | 8.0 | 0.00 | 0.23 | 0.03 | 69 | 1008.7 |
| 20260903174018 | 62 | 147 | 4.0 | 10.0 | 0.00 | 0.23 | 0.03 | 69 | 1008.8 |
| 20260903173619 | 61 | 148 | 4.0 | 9.0 | 0.00 | 0.23 | 0.03 | 71 | 1008.7 |
| 20260903173018 | 61 | 142 | 5.0 | 9.0 | 0.00 | 0.23 | 0.03 | 71 | 1008.7 |
| 20260903172521 | 61 | 155 | 4.0 | 8.0 | 0.00 | 0.23 | 0.03 | 71 | 1008.7 |
| 20260903172018 | 61 | 222 | 3.0 | 5.0 | 0.00 | 0.23 | 0.03 | 71 | 1008.7 |
| 20260903171519 | 61 | 166 | 3.0 | 8.0 | 0.00 | 0.23 | 0.03 | 72 | 1008.7 |
| 20260903171019 | 61 | 139 | 4.0 | 9.0 | 0.00 | 0.23 | 0.03 | 72 | 1008.6 |
| 20260903170519 | 61 | 156 | 5.0 | 8.0 | 0.00 | 0.23 | 0.03 | 71 | 1008.7 |
| 20260903170018 | 61 | 171 | 4.0 | 6.0 | 0.00 | 0.23 | 0.03 | 71 | 1008.7 |
| 20260903165516 | 60 | 167 | 3.0 | 7.0 | 0.00 | 0.23 | 0.03 | 72 | 1008.6 |
| 20260903165016 | 60 | 169 | 3.0 | 7.0 | 0.00 | 0.23 | 0.03 | 73 | 1008.6 |
| 20260903164539 | 60 | 149 | 4.0 | 7.0 | 0.00 | 0.23 | 0.03 | 73 | 1008.5 |
| 20260903164117 | 60 | 166 | 3.0 | 6.0 | 0.00 | 0.23 | 0.03 | 73 | 1008.6 |
| 20260903163516 | 61 | 171 | 4.0 | 6.0 | 0.00 | 0.23 | 0.03 | 72 | 1008.6 |
| 20260903163016 | 61 | 180 | 3.0 | 6.0 | 0.00 | 0.23 | 0.03 | 73 | 1008.6 |
| 20260903162516 | 61 | 164 | 4.0 | 8.0 | 0.00 | 0.23 | 0.03 | 73 | 1008.7 |
| 20260903162016 | 60 | 158 | 4.0 | 8.0 | 0.00 | 0.23 | 0.03 | 74 | 1008.7 |
| 20260903161536 | 60 | 159 | 3.0 | 7.0 | 0.00 | 0.23 | 0.03 | 75 | 1008.7 |
| 20260903161036 | 59 | 146 | 3.0 | 7.0 | 0.00 | 0.23 | 0.03 | 77 | 1008.7 |
| 20260903160516 | 59 | 171 | 3.0 | 6.0 | 0.00 | 0.23 | 0.03 | 77 | 1008.6 |
| 20260903160036 | 58 | 157 | 3.0 | 6.0 | 0.00 | 0.23 | 0.03 | 78 | 1008.6 |
| 20260903155516 | 58 | 149 | 4.0 | 6.0 | 0.00 | 0.23 | 0.03 | 78 | 1008.6 |
| 20260903155017 | 58 | 150 | 3.0 | 6.0 | 0.00 | 0.23 | 0.03 | 78 | 1008.6 |
| 20260903154516 | 58 | 149 | 4.0 | 7.0 | 0.00 | 0.23 | 0.03 | 78 | 1008.5 |
| 20260903154020 | 58 | 150 | 4.0 | 9.0 | 0.00 | 0.23 | 0.03 | 79 | 1008.4 |
| 20260903153517 | 57 | 160 | 4.0 | 7.0 | 0.00 | 0.23 | 0.03 | 79 | 1008.5 |
| 20260903153017 | 57 | 144 | 4.0 | 8.0 | 0.00 | 0.23 | 0.03 | 80 | 1008.5 |
| 20260903152517 | 57 | 146 | 5.0 | 8.0 | 0.00 | 0.23 | 0.03 | 79 | 1008.4 |
| 20260903152057 | 57 | 166 | 4.0 | 8.0 | 0.00 | 0.23 | 0.03 | 80 | 1008.4 |
| 20260903151517 | 57 | 149 | 3.0 | 6.0 | 0.00 | 0.23 | 0.03 | 80 | 1008.5 |
| 20260903151017 | 57 | 158 | 3.0 | 6.0 | 0.00 | 0.23 | 0.03 | 80 | 1008.5 |
| 20260903150517 | 57 | 158 | 2.0 | 6.0 | 0.00 | 0.23 | 0.03 | 81 | 1008.5 |
| 20260903150018 | 57 | 160 | 3.0 | 6.0 | 0.00 | 0.23 | 0.03 | 81 | 1008.5 |
| 20260903145517 | 57 | 143 | 4.0 | 8.0 | 0.00 | 0.23 | 0.03 | 81 | 1008.4 |
| 20260903145017 | 57 | 164 | 4.0 | 8.0 | 0.00 | 0.23 | 0.03 | 82 | 1008.4 |
| 20260903144518 | 57 | 151 | 4.0 | 8.0 | 0.00 | 0.23 | 0.03 | 83 | 1008.4 |
| 20260903144018 | 57 | 181 | 2.0 | 5.0 | 0.00 | 0.23 | 0.03 | 83 | 1008.3 |
| 20260903143518 | 57 | 169 | 3.0 | 7.0 | 0.00 | 0.23 | 0.03 | 83 | 1008.2 |
| 20260903143018 | 57 | 185 | 3.0 | 7.0 | 0.00 | 0.23 | 0.03 | 83 | 1008.2 |
| 20260903142559 | 56 | 177 | 3.0 | 6.0 | 0.00 | 0.23 | 0.03 | 83 | 1008.2 |
| 20260903142018 | 56 | 171 | 3.0 | 8.0 | 0.00 | 0.23 | 0.03 | 84 | 1008.1 |
| 20260903141538 | 56 | 151 | 3.0 | 7.0 | 0.00 | 0.23 | 0.03 | 83 | 1008.1 |
| 20260903141018 | 56 | 143 | 5.0 | 9.0 | 0.00 | 0.23 | 0.03 | 83 | 1008.1 |
| 20260903140518 | 56 | 156 | 3.0 | 7.0 | 0.00 | 0.23 | 0.03 | 84 | 1008.1 |
| 20260903140018 | 56 | 156 | 4.0 | 9.0 | 0.00 | 0.23 | 0.03 | 84 | 1008.1 |
| 20260903135539 | 56 | 147 | 4.0 | 8.0 | 0.00 | 0.23 | 0.03 | 85 | 1008.1 |
| 20260903135019 | 56 | 151 | 4.0 | 7.0 | 0.00 | 0.23 | 0.03 | 85 | 1008.0 |
| 20260903134518 | 56 | 165 | 4.0 | 8.0 | 0.00 | 0.23 | 0.03 | 84 | 1008.0 |
| 20260903134018 | 56 | 150 | 5.0 | 8.0 | 0.03 | 0.23 | 0.03 | 85 | 1008.0 |
| 20260903133519 | 56 | 152 | 5.0 | 9.0 | 0.03 | 0.23 | 0.03 | 85 | 1008.0 |
| 20260903133016 | 56 | 171 | 3.0 | 6.0 | 0.03 | 0.23 | 0.03 | 86 | 1007.9 |
| 20260903132519 | 56 | 152 | 4.0 | 9.0 | 0.03 | 0.23 | 0.03 | 86 | 1007.9 |
| 20260903132016 | 55 | 158 | 4.0 | 8.0 | 0.03 | 0.23 | 0.03 | 88 | 1007.8 |
| 20260903131516 | 55 | 180 | 2.0 | 5.0 | 0.03 | 0.23 | 0.03 | 89 | 1007.8 |
| 20260903131016 | 55 | 178 | 2.0 | 5.0 | 0.03 | 0.23 | 0.03 | 89 | 1007.7 |
| 20260903130519 | 55 | 169 | 3.0 | 7.0 | 0.03 | 0.23 | 0.03 | 88 | 1007.7 |
| 20260903130036 | 55 | 176 | 2.0 | 5.0 | 0.03 | 0.23 | 0.03 | 88 | 1007.8 |
| 20260903125516 | 55 | 188 | 3.0 | 7.0 | 0.03 | 0.23 | 0.03 | 88 | 1007.8 |
| 20260903125017 | 55 | 162 | 3.0 | 7.0 | 0.03 | 0.22 | 0.03 | 87 | 1007.8 |
| 20260903124516 | 56 | 168 | 3.0 | 6.0 | 0.03 | 0.22 | 0.03 | 84 | 1007.8 |
| 20260903124017 | 57 | 176 | 4.0 | 6.0 | 0.01 | 0.20 | 0.01 | 80 | 1007.8 |
| 20260903123517 | 57 | 182 | 5.0 | 10.0 | 0.00 | 0.20 | 0.00 | 77 | 1007.8 |
| 20260903123017 | 57 | 220 | 2.0 | 6.0 | 0.00 | 0.20 | 0.00 | 78 | 1007.8 |
| 20260903122517 | 58 | 224 | 1.0 | 4.0 | 0.00 | 0.20 | 0.00 | 78 | 1007.7 |
| 20260903122057 | 58 | 228 | 1.0 | 3.0 | 0.00 | 0.20 | 0.00 | 77 | 1007.6 |
| 20260903121516 | 58 | 192 | 2.0 | 4.0 | 0.00 | 0.20 | 0.00 | 77 | 1007.5 |
| 20260903121020 | 58 | 197 | 1.0 | 3.0 | 0.00 | 0.20 | 0.00 | 76 | 1007.4 |
| 20260903120540 | 58 | 183 | 2.0 | 5.0 | 0.00 | 0.20 | 0.00 | 76 | 1007.4 |
| 20260903120017 | 58 | 200 | 1.0 | 3.0 | 0.00 | 0.20 | 0.00 | 76 | 1007.4 |
| 20260903115520 | 58 | 177 | 2.0 | 4.0 | 0.00 | 0.20 | 0.00 | 76 | 1007.3 |
| 20260903115017 | 57 | 189 | 3.0 | 5.0 | 0.00 | 0.20 | 0.00 | 77 | 1007.3 |
| 20260903114517 | 57 | 157 | 1.0 | 4.0 | 0.00 | 0.20 | 0.00 | 78 | 1007.3 |
| 20260903114037 | 57 | 184 | 2.0 | 5.0 | 0.00 | 0.20 | 0.00 | 78 | 1007.3 |
| 20260903113537 | 58 | 182 | 2.0 | 5.0 | 0.00 | 0.20 | 0.00 | 77 | 1007.3 |
| 20260903113018 | 58 | 178 | 2.0 | 5.0 | 0.00 | 0.20 | 0.00 | 77 | 1007.3 |
| 20260903112520 | 58 | 169 | 2.0 | 6.0 | 0.00 | 0.20 | 0.00 | 76 | 1007.3 |
| 20260903112017 | 58 | 176 | 2.0 | 4.0 | 0.00 | 0.20 | 0.00 | 76 | 1007.3 |
| 20260903111518 | 58 | 203 | 3.0 | 5.0 | 0.00 | 0.20 | 0.00 | 75 | 1007.4 |
| 20260903111018 | 58 | 195 | 2.0 | 5.0 | 0.00 | 0.20 | 0.00 | 75 | 1007.3 |
| 20260903110518 | 58 | 189 | 3.0 | 8.0 | 0.00 | 0.20 | 0.00 | 75 | 1007.3 |
| 20260903110018 | 58 | 200 | 1.0 | 4.0 | 0.00 | 0.20 | 0.00 | 76 | 1007.3 |
| 20260903105518 | 58 | 194 | 3.0 | 7.0 | 0.00 | 0.20 | 0.00 | 76 | 1007.3 |
| 20260903105018 | 58 | 193 | 3.0 | 5.0 | 0.00 | 0.20 | 0.00 | 77 | 1007.3 |
| 20260903104518 | 57 | 201 | 2.0 | 5.0 | 0.00 | 0.20 | 0.00 | 78 | 1007.3 |
| 20260903104018 | 57 | 199 | 1.0 | 4.0 | 0.00 | 0.20 | 0.00 | 79 | 1007.3 |
| 20260903103519 | 57 | 211 | 1.0 | 4.0 | 0.00 | 0.20 | 0.00 | 80 | 1007.3 |
| 20260903103019 | 57 | 192 | 2.0 | 5.0 | 0.00 | 0.20 | 0.00 | 79 | 1007.3 |
| 20260903102519 | 57 | 181 | 3.0 | 6.0 | 0.00 | 0.20 | 0.00 | 80 | 1007.3 |
| 20260903102039 | 57 | 173 | 3.0 | 5.0 | 0.00 | 0.20 | 0.00 | 80 | 1007.3 |
| 20260903101519 | 57 | 173 | 2.0 | 5.0 | 0.00 | 0.20 | 0.00 | 80 | 1007.3 |
| 20260903101036 | 57 | 183 | 2.0 | 4.0 | 0.00 | 0.20 | 0.00 | 80 | 1007.3 |
| 20260903100518 | 57 | 187 | 3.0 | 8.0 | 0.00 | 0.20 | 0.00 | 80 | 1007.3 |
| 20260903100015 | 57 | 152 | 3.0 | 7.0 | 0.00 | 0.20 | 0.00 | 80 | 1007.2 |
| 20260903095516 | 57 | 165 | 2.0 | 5.0 | 0.00 | 0.20 | 0.00 | 80 | 1007.3 |
| 20260903095016 | 57 | 165 | 3.0 | 6.0 | 0.00 | 0.20 | 0.00 | 80 | 1007.3 |
| 20260903094516 | 57 | 174 | 3.0 | 7.0 | 0.00 | 0.20 | 0.00 | 80 | 1007.2 |
| 20260903094022 | 57 | 170 | 3.0 | 6.0 | 0.00 | 0.20 | 0.00 | 79 | 1007.2 |
| 20260903093556 | 57 | 185 | 2.0 | 6.0 | 0.00 | 0.20 | 0.00 | 80 | 1007.2 |
| 20260903093016 | 57 | 179 | 2.0 | 4.0 | 0.00 | 0.20 | 0.00 | 81 | 1007.2 |
| 20260903092517 | 57 | 187 | 2.0 | 4.0 | 0.00 | 0.20 | 0.00 | 82 | 1007.2 |
| 20260903092016 | 57 | 192 | 1.0 | 3.0 | 0.00 | 0.20 | 0.00 | 82 | 1007.2 |
| 20260903091516 | 57 | 191 | 2.0 | 5.0 | 0.00 | 0.20 | 0.00 | 81 | 1007.2 |
| 20260903091016 | 57 | 200 | 1.0 | 3.0 | 0.00 | 0.20 | 0.00 | 82 | 1007.2 |
| 20260903090516 | 57 | 196 | 2.0 | 5.0 | 0.00 | 0.20 | 0.00 | 82 | 1007.1 |
| 20260903090137 | 57 | 188 | 1.0 | 4.0 | 0.00 | 0.20 | 0.00 | 82 | 1007.0 |
| 20260903085517 | 57 | 207 | 1.0 | 2.0 | 0.00 | 0.20 | 0.00 | 81 | 1007.0 |
| 20260903085016 | 57 | 187 | 2.0 | 4.0 | 0.00 | 0.20 | 0.00 | 81 | 1007.0 |
| 20260903084517 | 57 | 198 | 2.0 | 5.0 | 0.00 | 0.20 | 0.00 | 80 | 1006.9 |
| 20260903084017 | 57 | 195 | 2.0 | 5.0 | 0.00 | 0.20 | 0.00 | 79 | 1006.9 |
| 20260903083517 | 57 | 182 | 3.0 | 6.0 | 0.00 | 0.20 | 0.00 | 79 | 1006.9 |
| 20260903083016 | 57 | 198 | 2.0 | 5.0 | 0.00 | 0.20 | 0.00 | 79 | 1006.9 |
| 20260903082540 | 58 | 173 | 3.0 | 5.0 | 0.00 | 0.20 | 0.00 | 79 | 1006.9 |
| 20260903082017 | 58 | 179 | 3.0 | 8.0 | 0.00 | 0.20 | 0.00 | 79 | 1007.0 |
| 20260903081601 | 58 | 162 | 3.0 | 7.0 | 0.00 | 0.20 | 0.00 | 78 | 1007.0 |
| 20260903081020 | 58 | 187 | 3.0 | 8.0 | 0.00 | 0.20 | 0.00 | 78 | 1006.9 |
| 20260903080517 | 58 | 186 | 3.0 | 7.0 | 0.00 | 0.20 | 0.00 | 78 | 1006.9 |
| 20260903080038 | 58 | 159 | 4.0 | 9.0 | 0.00 | 0.20 | 0.00 | 79 | 1006.9 |
| 20260903075538 | 58 | 172 | 3.0 | 8.0 | 0.00 | 0.20 | 0.00 | 80 | 1006.9 |
| 20260903075018 | 58 | 193 | 3.0 | 6.0 | 0.00 | 0.20 | 0.00 | 80 | 1006.9 |
| 20260903074518 | 58 | 178 | 3.0 | 7.0 | 0.00 | 0.20 | 0.00 | 79 | 1006.9 |
| 20260903074018 | 58 | 207 | 3.0 | 6.0 | 0.00 | 0.20 | 0.00 | 78 | 1006.8 |
| 20260903073538 | 58 | 194 | 3.0 | 7.0 | 0.00 | 0.20 | 0.00 | 78 | 1006.8 |
| 20260903073021 | 58 | 203 | 3.0 | 5.0 | 0.00 | 0.20 | 0.00 | 77 | 1006.7 |
| 20260903072558 | 58 | 199 | 3.0 | 6.0 | 0.00 | 0.20 | 0.00 | 77 | 1006.7 |
| 20260903072019 | 58 | 191 | 3.0 | 8.0 | 0.00 | 0.20 | 0.00 | 78 | 1006.7 |
| 20260903071559 | 58 | 182 | 3.0 | 6.0 | 0.00 | 0.20 | 0.00 | 78 | 1006.7 |
| 20260903071019 | 58 | 197 | 3.0 | 7.0 | 0.00 | 0.20 | 0.00 | 78 | 1006.7 |
| 20260903070518 | 58 | 189 | 4.0 | 7.0 | 0.00 | 0.20 | 0.00 | 78 | 1006.7 |
| 20260903070019 | 58 | 186 | 3.0 | 6.0 | 0.00 | 0.20 | 0.00 | 79 | 1006.7 |
| 20260903065518 | 58 | 191 | 4.0 | 8.0 | 0.00 | 0.20 | 0.20 | 79 | 1006.7 |
| 20260903065021 | 58 | 192 | 4.0 | 8.0 | 0.00 | 0.20 | 0.20 | 81 | 1006.7 |
| 20260903064518 | 58 | 196 | 3.0 | 6.0 | 0.00 | 0.20 | 0.20 | 82 | 1006.7 |
| 20260903064016 | 58 | 191 | 3.0 | 6.0 | 0.00 | 0.20 | 0.20 | 83 | 1006.7 |
| 20260903063516 | 58 | 172 | 2.0 | 5.0 | 0.00 | 0.20 | 0.20 | 84 | 1006.6 |
| 20260903063016 | 58 | 168 | 2.0 | 6.0 | 0.00 | 0.20 | 0.20 | 84 | 1006.7 |
| 20260903062517 | 58 | 196 | 3.0 | 6.0 | 0.00 | 0.20 | 0.20 | 83 | 1006.7 |
| 20260903062036 | 58 | 192 | 3.0 | 6.0 | 0.00 | 0.20 | 0.20 | 83 | 1006.7 |
| 20260903061516 | 58 | 187 | 3.0 | 9.0 | 0.00 | 0.20 | 0.20 | 83 | 1006.6 |
| 20260903061016 | 58 | 195 | 3.0 | 9.0 | 0.00 | 0.20 | 0.20 | 83 | 1006.6 |
| 20260903060516 | 58 | 195 | 4.0 | 8.0 | 0.00 | 0.20 | 0.20 | 84 | 1006.6 |
| 20260903060016 | 58 | 191 | 3.0 | 8.0 | 0.00 | 0.20 | 0.20 | 84 | 1006.6 |
| 20260903055517 | 59 | 191 | 4.0 | 10.0 | 0.00 | 0.20 | 0.20 | 84 | 1006.6 |
| 20260903055036 | 59 | 187 | 3.0 | 7.0 | 0.00 | 0.20 | 0.20 | 84 | 1006.7 |
| 20260903054517 | 59 | 185 | 4.0 | 8.0 | 0.00 | 0.20 | 0.20 | 85 | 1006.6 |
| 20260903054016 | 59 | 188 | 4.0 | 7.0 | 0.00 | 0.20 | 0.20 | 85 | 1006.7 |
| 20260903053517 | 59 | 190 | 4.0 | 7.0 | 0.00 | 0.20 | 0.20 | 86 | 1006.7 |
| 20260903053017 | 59 | 185 | 4.0 | 8.0 | 0.00 | 0.20 | 0.20 | 86 | 1006.7 |
| 20260903052517 | 58 | 186 | 4.0 | 9.0 | 0.00 | 0.20 | 0.20 | 87 | 1006.6 |
| 20260903052017 | 59 | 180 | 3.0 | 6.0 | 0.00 | 0.20 | 0.20 | 86 | 1006.6 |
| 20260903051517 | 59 | 193 | 3.0 | 9.0 | 0.00 | 0.20 | 0.20 | 86 | 1006.6 |
| 20260903051020 | 59 | 186 | 3.0 | 7.0 | 0.00 | 0.20 | 0.20 | 86 | 1006.6 |
| 20260903050517 | 59 | 184 | 4.0 | 8.0 | 0.00 | 0.20 | 0.20 | 86 | 1006.6 |
| 20260903050017 | 59 | 190 | 4.0 | 7.0 | 0.00 | 0.20 | 0.20 | 85 | 1006.6 |
| 20260903045518 | 59 | 203 | 3.0 | 6.0 | 0.00 | 0.20 | 0.20 | 84 | 1006.6 |
| 20260903045021 | 59 | 201 | 2.0 | 6.0 | 0.00 | 0.20 | 0.20 | 84 | 1006.6 |
| 20260903044518 | 59 | 200 | 3.0 | 6.0 | 0.00 | 0.20 | 0.20 | 82 | 1006.6 |